EW4164 Weather Reports


time (UTC)temp
C
wind
direction
speed
KPH
gust
KPH
rain 1hr
cm
rain 24hr
cm
rain mn
cm
humidity
%
barometer
mb
20260505182226 15 188 1.6 3.2 0.05 0.05 0.05 88 1007.5
20260505181540 15 222 0.0 3.2 0.03 0.05 0.05 87 1007.6
20260505180023 -17 0.0 0.0 0.00 0.05 0.05 1007.4
20260505174531 -17 0.0 0.0 0.00 0.05 0.05 1007.5
20260505173227 16 150 0.0 1.6 0.00 0.05 0.05 80 1007.4
20260505173047 16 150 0.0 3.2 0.00 0.05 0.05 80 1007.4
20260505172218 16 109 1.6 0.0 0.00 0.05 0.05 80 1007.4
20260505171536 -17 0.0 0.0 0.00 0.05 0.05 1007.4
20260505170110 -17 0.0 0.0 0.00 0.05 0.05 1007.5
20260505164600 -17 0.0 0.0 0.00 0.05 0.05 1007.5
20260505163045 -17 0.0 0.0 0.00 0.05 0.05 1007.6
20260505161515 -17 0.0 0.0 0.00 0.05 0.05 1007.6
20260505160107 -17 0.0 0.0 0.00 0.05 0.05 1007.6
20260505153008 -17 0.0 0.0 0.00 0.05 0.05 1007.7
20260505151544 -17 0.0 0.0 0.00 0.05 0.05 1007.8
20260505150225 16 0 1.6 3.2 0.00 0.05 0.05 83 1007.9
20260505124606 -17 0.0 0.0 0.00 0.00 0.00 1008.8
20260505123224 17 211 3.2 4.8 0.00 0.00 0.00 74 1008.9
20260505123054 -17 0.0 0.0 0.00 0.00 0.00 1008.9
20260505122220 17 211 3.2 8.0 0.00 0.00 0.00 74 1008.8
20260505121554 16 216 3.2 8.0 0.00 0.00 0.00 74 1008.8
20260505120114 17 236 0.0 3.2 0.00 0.00 0.00 73 1008.8
20260505115219 17 252 1.6 4.8 0.00 0.00 0.00 74 1008.8
20260505114526 17 288 1.6 4.8 0.00 0.00 0.00 73 1008.9
20260505114225 17 248 1.6 3.2 0.00 0.00 0.00 75 1008.9
20260505113211 17 167 1.6 1.6 0.00 0.00 0.00 74 1008.9
20260505113005 17 23 0.0 4.8 0.00 0.00 0.00 74 1008.9
20260505111553 -17 0.0 0.0 0.00 0.00 0.00 1009.0
20260505101524 17 123 1.6 4.8 0.00 0.00 0.00 80 1009.0
20260505101228 17 115 1.6 8.0 0.00 0.00 0.00 79 1009.0
20260505100218 17 171 3.2 8.0 0.00 0.00 0.00 79 1009.1
20260505100055 17 201 1.6 6.4 0.00 0.00 0.00 78 1009.2
20260505095226 17 182 3.2 8.0 0.00 0.00 0.00 78 1009.3
20260505094544 17 161 1.6 8.0 0.00 0.00 0.00 78 1009.3
20260505094220 17 254 1.6 6.4 0.00 0.00 0.00 78 1009.2
20260505093224 17 112 1.6 4.8 0.00 0.00 0.00 78 1009.3
20260505093046 17 225 1.6 4.8 0.00 0.00 0.00 78 1009.3
20260505092215 17 81 3.2 0.0 0.00 0.00 0.00 79 1009.4
20260505091519 -17 0.0 0.0 0.00 0.00 0.00 1009.4
20260505091226 16 225 3.2 3.2 0.00 0.00 0.00 77 1009.5
20260505090218 16 225 3.2 4.8 0.00 0.00 0.00 77 1009.6
20260505090059 16 225 1.6 4.8 0.00 0.00 0.00 77 1009.6
20260505085226 16 93 3.2 6.4 0.00 0.00 0.00 77 1009.6
20260505084550 16 151 1.6 4.8 0.00 0.00 0.00 77 1009.7
20260505084218 16 151 3.2 6.4 0.00 0.00 0.00 77 1009.8
20260505083211 16 101 1.6 4.8 0.00 0.00 0.00 77 1009.9
20260505083103 16 144 1.6 6.4 0.00 0.00 0.00 77 1009.9
20260505082215 16 214 1.6 1.6 0.00 0.00 0.00 78 1009.9
20260505081523 -17 0.0 0.0 0.00 0.00 0.00 1009.8
20260505081228 16 214 1.6 6.4 0.00 0.00 0.00 78 1009.9
20260505080055 16 166 0.0 6.4 0.00 0.00 0.00 78 1009.9
20260505075226 16 155 1.6 3.2 0.00 0.00 0.00 78 1009.9
20260505074510 15 92 0.0 4.8 0.00 0.00 0.00 80 1009.9
20260505074211 15 138 1.6 6.4 0.00 0.00 0.00 79 1010.0
20260505073220 15 218 1.6 6.4 0.00 0.00 0.00 79 1010.1
20260505073110 15 222 1.6 4.8 0.00 0.00 0.00 79 1010.0
20260505072217 15 57 1.6 1.6 0.00 0.00 0.00 79 1010.1
20260505071559 15 348 0.0 1.6 0.00 0.00 0.00 80 1010.1
20260505071212 15 244 0.0 1.6 0.00 0.00 0.00 80 1010.1
20260505070053 14 244 0.0 1.6 0.00 0.00 0.00 80 1010.1
20260505065212 14 215 0.0 1.6 0.00 0.00 0.00 81 1010.2
20260505064606 13 215 0.0 1.6 0.00 0.00 0.00 82 1010.1
20260505063227 13 229 0.0 1.6 0.00 0.00 0.00 82 1010.2
20260505063039 13 229 0.0 1.6 0.00 0.00 0.00 82 1010.1
20260505062213 13 233 1.6 3.2 0.00 0.00 0.00 82 1010.1
20260505061542 13 219 0.0 3.2 0.00 0.00 0.00 82 1010.1
20260505061218 13 182 0.0 1.6 0.00 0.00 0.00 82 1010.2
20260505060225 13 244 0.0 1.6 0.00 0.00 0.00 82 1010.2
20260505060055 13 244 0.0 3.2 0.00 0.00 0.00 82 1010.2
20260505054517 -17 0.0 0.0 0.00 0.00 0.00 1010.3
20260505054225 13 240 1.6 3.2 0.00 0.00 0.00 84 1010.3
20260505053230 13 240 1.6 3.2 0.00 0.00 0.00 84 1010.3
20260505053047 12 240 1.6 4.8 0.00 0.00 0.00 84 1010.3
20260505052214 12 208 1.6 4.8 0.00 0.00 0.00 84 1010.3
20260505051555 12 217 1.6 6.4 0.00 0.00 0.00 84 1010.3
20260505051245 12 204 3.2 4.8 0.00 0.00 0.00 84 1010.3
20260505050227 12 238 1.6 4.8 0.00 0.00 0.00 84 1010.2
20260505041552 12 203 3.2 4.8 0.00 0.00 0.00 84 1010.1
20260505041218 12 226 1.6 3.2 0.00 0.00 0.00 84 1010.2
20260505040056 12 269 1.6 4.8 0.00 0.00 0.00 84 1010.1
20260505035227 12 27 1.6 6.4 0.00 0.00 0.00 84 1010.1
20260505034519 12 223 1.6 6.4 0.00 0.00 0.00 84 1010.0
20260505034222 12 257 3.2 6.4 0.00 0.00 0.00 84 1010.1
20260505033224 12 215 3.2 6.4 0.00 0.00 0.00 85 1010.1
20260505033055 12 230 1.6 6.4 0.00 0.00 0.00 85 1010.2
20260505032234 12 238 1.6 3.2 0.00 0.00 0.00 85 1010.2
20260505031608 12 244 0.0 3.2 0.00 0.00 0.00 85 1010.3
20260505030227 12 231 1.6 3.2 0.00 0.00 0.00 84 1010.5
20260505030042 12 231 0.0 3.2 0.00 0.00 0.00 84 1010.5
20260505025219 12 231 0.0 1.6 0.00 0.00 0.00 84 1010.6
20260505024525 12 231 0.0 1.6 0.00 0.00 0.00 83 1010.6
20260505024220 12 231 0.0 1.6 0.00 0.00 0.00 83 1010.7
20260505023211 12 231 0.0 1.6 0.00 0.00 0.00 83 1010.8
20260505023054 12 231 0.0 1.6 0.00 0.00 0.00 83 1010.8
20260505022208 13 231 1.6 3.2 0.00 0.00 0.00 83 1011.0
20260505021511 12 241 0.0 3.2 0.00 0.00 0.00 83 1011.1
20260505021225 13 223 0.0 1.6 0.00 0.00 0.00 83 1011.1
20260505020219 13 223 0.0 1.6 0.00 0.00 0.00 83 1011.3
20260505020008 12 223 0.0 1.6 0.00 0.00 0.00 83 1011.3
20260505015224 13 223 0.0 1.6 0.00 0.00 0.00 82 1011.2
20260505014558 12 223 0.0 1.6 0.00 0.00 0.00 82 1011.3
20260505014223 13 223 1.6 3.2 0.00 0.00 0.00 82 1011.3
20260505013221 13 223 1.6 3.2 0.00 0.00 0.00 82 1011.4
20260505013016 13 215 1.6 3.2 0.00 0.00 0.00 82 1011.4
20260505012219 13 287 0.0 3.2 0.00 0.00 0.00 81 1011.5
20260505011603 13 313 0.0 3.2 0.00 0.00 0.00 81 1011.6
20260505010214 13 10 0.0 0.0 0.00 0.00 0.00 81 1011.8
20260505010023 13 10 0.0 0.0 0.00 0.00 0.00 81 1011.8
20260505005222 13 10 0.0 1.6 0.00 0.00 0.00 82 1011.9
20260505004510 13 11 0.0 1.6 0.00 0.00 0.00 82 1012.1
20260505004217 13 11 0.0 1.6 0.00 0.00 0.00 82 1012.1
20260505003221 13 11 0.0 1.6 0.00 0.00 0.00 81 1012.1
20260505003110 13 11 0.0 1.6 0.00 0.00 0.00 81 1012.2
20260505002215 13 11 0.0 1.6 0.00 0.00 0.00 81 1012.2
20260505001600 13 13 0.0 1.6 0.00 0.00 0.00 81 1012.2
20260505001207 13 12 0.0 1.6 0.00 0.00 0.00 81 1012.1
20260505000218 13 10 0.0 1.6 0.00 0.00 0.00 80 1012.1
20260505000020 13 10 0.0 1.6 0.00 0.00 0.00 80 1012.2
20260504235215 13 10 0.0 1.6 0.00 0.00 0.00 80 1012.2
20260504234512 13 11 0.0 1.6 0.00 0.00 0.00 80 1012.1
20260504234225 13 11 0.0 0.0 0.00 0.00 0.00 79 1012.1
20260504233216 14 11 0.0 1.6 0.00 0.00 0.00 79 1012.2
20260504233013 13 11 0.0 1.6 0.00 0.00 0.00 78 1012.2
20260504231507 13 13 0.0 0.0 0.00 0.00 0.00 77 1012.4
20260504230041 14 13 0.0 1.6 0.00 0.00 0.00 76 1012.7
20260504225217 14 14 1.6 3.2 0.00 0.00 0.00 76 1012.8
20260504224601 14 11 1.6 3.2 0.00 0.00 0.00 75 1012.9
20260504224228 14 234 1.6 3.2 0.00 0.00 0.00 75 1012.9
20260504223211 14 222 1.6 3.2 0.00 0.00 0.00 76 1012.9
20260504223059 14 234 1.6 3.2 0.00 0.00 0.00 75 1013.0
20260504222233 15 238 0.0 1.6 0.00 0.00 0.00 75 1012.9
20260504221536 14 235 0.0 1.6 0.00 0.00 0.00 74 1013.0
20260504221227 15 235 0.0 3.2 0.00 0.00 0.00 74 1013.0
20260504220219 15 218 0.0 1.6 0.00 0.00 0.00 73 1013.0
20260504220024 14 218 0.0 1.6 0.00 0.00 0.00 73 1013.1
20260504214542 15 218 0.0 1.6 0.00 0.00 0.00 72 1013.2
20260504214243 15 221 0.0 3.2 0.00 0.00 0.00 72 1013.2
20260504213231 15 254 1.6 4.8 0.00 0.00 0.00 72 1013.2
20260504213049 15 179 0.0 3.2 0.00 0.00 0.00 72 1013.3
20260504212238 15 222 1.6 3.2 0.00 0.00 0.00 71 1013.3
20260504211549 15 242 0.0 3.2 0.00 0.00 0.00 72 1013.3
20260504210058 15 219 1.6 6.4 0.00 0.00 0.00 72 1013.4
20260504205222 15 205 3.2 8.0 0.00 0.00 0.00 72 1013.4
20260504204541 15 229 3.2 11.3 0.00 0.00 0.00 73 1013.3
20260504204221 15 223 3.2 4.8 0.00 0.00 0.00 73 1013.2
20260504203059 15 221 3.2 6.4 0.00 0.00 0.00 73 1013.1
20260504201554 15 236 1.6 6.4 0.00 0.00 0.00 73 1013.1
20260504201214 15 207 1.6 6.4 0.00 0.00 0.00 72 1013.1
20260504200211 15 165 1.6 3.2 0.00 0.00 0.00 72 1013.1
20260504200003 15 239 1.6 4.8 0.00 0.00 0.00 72 1013.2
20260504195215 15 186 1.6 3.2 0.00 0.00 0.00 71 1013.1
20260504194513 15 240 0.0 3.2 0.00 0.00 0.00 70 1013.1
20260504194228 16 235 1.6 4.8 0.00 0.00 0.00 70 1013.1
20260504193229 16 229 0.0 4.8 0.00 0.00 0.00 69 1013.1
20260504193053 16 231 0.0 4.8 0.00 0.00 0.00 69 1013.1
20260504192220 16 188 1.6 4.8 0.00 0.00 0.00 68 1013.0
20260504191603 16 256 0.0 6.4 0.00 0.00 0.00 68 1013.1
20260504191229 16 259 1.6 4.8 0.00 0.00 0.00 68 1013.1
20260504190222 16 250 1.6 8.0 0.00 0.00 0.00 67 1013.0
20260504190016 16 219 1.6 4.8 0.00 0.00 0.00 67 1013.0
20260504184513 16 217 1.6 8.0 0.00 0.00 0.00 66 1013.1
20260504184220 17 225 3.2 6.4 0.00 0.00 0.00 66 1013.0